Home   Weather   Tampa   Past weeks
Flag for USA

Past Weather in Tampa, Florida, USA — Yesterday and Last 2 Weeks

Now
75 °F

Rain. Scattered clouds.


Feels Like: 73 °F
Forecast: 83 / 75 °F
Wind: 7 mph from East

Location: Tampa, Peter O Knight Airport

Current Time: Oct 18, 2019 at 8:08:35 pm

Latest Report: Oct 18, 2019 at 6:55 pm


Visibility: 10 mi

Pressure: 29.86 "Hg

Humidity: 100%

Dew Point: 75 °F

Location of TampaLocation

Past Weather in Tampa — Graph

°F

Tampa Temperature Yesterday

Maximum temperature yesterday: 88 °F (at 2:55 pm)
Minimum temperature yesterday: 73 °F (at 8:55 am)
Average temperature yesterday: 80 °F

High & Low Weather Summary for the Past Weeks

 TemperatureHumidityPressure
High95 °F (Oct 4, 4:15 pm)100% (Oct 4, 4:35 am)30.09 "Hg (Oct 4, 4:35 am)
Low70 °F (Oct 18, 7:15 am)41% (Oct 4, 4:15 pm)29.81 "Hg (Oct 7, 3:55 pm)
Average81 °F74%29.98 "Hg
* Reported Oct 3 6:15 pm — Oct 18 6:55 pm, Tampa. Weather by CustomWeather, © 2019

Note: Actual official high and low records may vary slightly from our data, if they occured in-between our weather recording intervals... More about our weather records

Advertising

Tampa Weather History for the Previous 24 Hours

Scroll right to see more
 ConditionsComfort  
Time TempWeatherWind HumidityBarometerVisibility
6:55 pm
Fri, Oct 18
75 °FRain. Scattered clouds.7 mph100%29.86 "Hg10 mi
6:35 pm75 °FLight rain. Scattered clouds.7 mph100%29.86 "Hg10 mi
6:15 pm75 °FLight rain. Broken clouds.7 mph89%29.86 "Hg10 mi
5:55 pm77 °FLight rain. Mostly cloudy.7 mph83%29.86 "Hg10 mi
5:35 pm77 °FPartly sunny.9 mph83%29.86 "Hg10 mi
5:15 pm77 °FPartly sunny.10 mph79%29.86 "Hg10 mi
4:35 pm77 °FCloudy.9 mph79%29.87 "Hg10 mi
4:15 pm75 °FBroken clouds.7 mph83%29.87 "Hg10 mi
3:55 pm75 °FDrizzle. Broken clouds.8 mph83%29.87 "Hg10 mi
3:35 pm75 °FScattered clouds.8 mph83%29.86 "Hg10 mi
3:15 pm77 °FScattered clouds.10 mph74%29.86 "Hg10 mi
2:55 pm77 °FScattered clouds.8 mph74%29.89 "Hg10 mi
2:35 pm77 °FOvercast.7 mph74%29.90 "Hg10 mi
2:15 pm77 °FMostly cloudy.7 mph74%29.91 "Hg10 mi
1:55 pm77 °FMostly cloudy.7 mph74%29.91 "Hg10 mi
1:35 pm75 °FMostly cloudy.6 mph78%29.92 "Hg10 mi
1:15 pm77 °FMore clouds than sun.9 mph69%29.92 "Hg10 mi
12:55 pm77 °FMore clouds than sun.7 mph69%29.93 "Hg10 mi
12:35 pm75 °FMore clouds than sun.8 mph74%29.94 "Hg10 mi
12:15 pm75 °FPartly sunny.6 mph74%29.95 "Hg10 mi
11:35 am75 °FMostly cloudy.8 mph74%29.95 "Hg10 mi
11:15 am73 °FOvercast.8 mph78%29.95 "Hg10 mi
10:35 am73 °FBroken clouds.7 mph78%29.96 "Hg10 mi
10:15 am73 °FSunny.6 mph74%29.95 "Hg10 mi
9:55 am72 °FSunny.9 mph78%29.94 "Hg10 mi
9:35 am72 °FScattered clouds.6 mph78%29.95 "Hg10 mi
9:15 am72 °FScattered clouds.9 mph78%29.94 "Hg10 mi
8:55 am72 °FPartly sunny.9 mph78%29.94 "Hg10 mi
8:35 am72 °FPartly sunny.8 mph78%29.94 "Hg10 mi
8:15 am72 °FPartly sunny.5 mph78%29.94 "Hg10 mi
7:55 am72 °FScattered clouds.7 mph78%29.93 "Hg10 mi
7:35 am72 °FScattered clouds.5 mph78%29.93 "Hg10 mi
7:15 am70 °FPassing clouds.7 mph83%29.93 "Hg10 mi
6:55 am72 °FPartly cloudy.6 mph78%29.92 "Hg10 mi
6:35 am72 °FOvercast.7 mph78%29.92 "Hg10 mi
6:15 am72 °FOvercast.9 mph78%29.91 "Hg10 mi
5:55 am72 °FOvercast.9 mph73%29.90 "Hg10 mi
5:35 am72 °FOvercast.9 mph73%29.90 "Hg10 mi
5:15 am72 °FMostly cloudy.7 mph73%29.89 "Hg10 mi
4:35 am72 °FMostly cloudy.6 mph73%29.90 "Hg10 mi
3:55 am72 °FOvercast.8 mph73%29.89 "Hg10 mi
3:35 am72 °FOvercast.7 mph78%29.90 "Hg10 mi
3:15 am73 °FMostly cloudy.9 mph69%29.90 "Hg10 mi
2:55 am73 °FMostly cloudy.No wind69%29.93 "Hg10 mi
2:35 am73 °FPassing clouds.7 mph74%29.92 "Hg10 mi
2:15 am73 °FPartly cloudy.6 mph78%29.92 "Hg10 mi
1:55 am73 °FOvercast.5 mph78%29.94 "Hg10 mi
1:35 am75 °FMostly cloudy.No wind74%29.95 "Hg10 mi
1:15 am75 °FOvercast.No wind74%29.96 "Hg10 mi
12:55 am73 °FMostly cloudy.No wind78%29.95 "Hg10 mi
12:35 am73 °FOvercast.No wind78%29.95 "Hg10 mi
12:15 am73 °FMostly cloudy.5 mph83%29.95 "Hg10 mi
11:35 pm
Thu, Oct 17
75 °FOvercast.3 mph78%29.95 "Hg10 mi
11:15 pm75 °FOvercast.No wind78%29.96 "Hg10 mi
10:55 pm77 °FMostly cloudy.No wind74%29.96 "Hg10 mi
10:35 pm77 °FMostly cloudy.No wind74%29.95 "Hg10 mi
10:15 pm77 °FMostly cloudy.5 mph74%29.95 "Hg10 mi
9:55 pm77 °FMostly cloudy.3 mph74%29.94 "Hg10 mi
9:35 pm77 °FOvercast.No wind74%29.93 "Hg10 mi
9:15 pm77 °FOvercast.No wind74%29.92 "Hg10 mi
8:55 pm77 °FOvercast.No wind74%29.91 "Hg10 mi
8:35 pm79 °FOvercast.3 mph70%29.91 "Hg10 mi
8:15 pm79 °FOvercast.No wind70%29.91 "Hg10 mi
Weather by CustomWeather, © 2019

See weather overview